Weather History for KPHN - January, 2014

Change the Weather History Date:

Sunday, January 5, 2014

  Actual Average (KMTC) Record (KMTC)
Temperature  
Mean Temperature 28 °F -  
Max Temperature 30 °F 31 °F - (-1)
Min Temperature 26 °F 17 °F - (-1)
Degree Days  
Heating Degree Days 37    
Moisture  
Dew Point 27 °F    
Average Humidity 93    
Maximum Humidity 100    
Minimum Humidity 86    
Precipitation  
Precipitation 0.00 in - - ()
Sea Level Pressure  
Sea Level Pressure 29.85 in    
Wind  
Wind Speed 4 mph (NNE)    
Max Wind Speed 16 mph    
Max Gust Speed 22 mph    
Visibility 2 miles    
Events Snow    
Averages and records for this station are not official NWS values.
T = Trace of Precipitation, MM = Missing Value Source: NWS Daily Summary

Daily Weather History Graph

Daily Weather History Graph

Search for Another Location

Airport or City:

Trip Planner

Search our weather history database for the weather conditions in past years. The results will help you decide how hot, cold, wet, or windy it might be!

Date:

Astronomy

Jan. 05, 2014 Rise Set
Actual Time 8:01 AM EST 5:10 PM EST
Civil Twilight 7:29 AM EST 5:42 PM EST
Nautical Twilight 6:53 AM EST 6:17 PM EST
Astronomical Twilight 6:19 AM EST 6:52 PM EST
Moon 10:34 AM EST (1/5) 10:45 PM EST (1/5)
Length of Visible Light 10h 13m
Length of Day
9h 09m
Waxing Crescent, 24% of the Moon is Illuminated
Jan 5
Waxing Crescent
Jan 7
First Quarter
Jan 15
Full
Jan 24
Last Quarter
Jan 30
New

Hourly Weather History & Observations

Time (EST) Temp. Windchill Dew Point Humidity Pressure Visibility Wind Dir Wind Speed Gust Speed Precip Events Conditions
12:17 AM 26.6 °F 20.0 °F 24.8 °F 93% 30.03 in 1.8 mi SSW 5.8 mph - N/A Snow Light Snow
12:38 AM 26.6 °F 20.0 °F 24.8 °F 93% 30.03 in 2.5 mi South 5.8 mph - N/A Snow Light Snow
12:58 AM 26.6 °F 20.0 °F 24.8 °F 93% 30.03 in 2.0 mi SSW 5.8 mph - N/A Snow Light Snow
1:18 AM 26.6 °F 21.2 °F 24.8 °F 93% 30.03 in 1.2 mi SSW 4.6 mph - N/A Snow Light Snow
1:38 AM 26.6 °F 21.2 °F 24.8 °F 93% 30.03 in 1.2 mi SSW 4.6 mph - N/A Snow Light Snow
1:57 AM 26.6 °F 22.6 °F 24.8 °F 93% 30.03 in 1.8 mi SSW 3.5 mph - N/A Snow Light Snow
2:18 AM 26.6 °F - 24.8 °F 93% 30.03 in 5.0 mi Calm Calm - N/A Snow Light Snow
2:38 AM 26.6 °F 22.6 °F 24.8 °F 93% 30.04 in 4.0 mi SSW 3.5 mph - N/A Snow Light Snow
2:58 AM 26.6 °F 22.6 °F 24.8 °F 93% 30.05 in 7.0 mi SSW 3.5 mph - N/A Snow Light Snow
3:18 AM 26.6 °F - 24.8 °F 93% 30.04 in 4.0 mi Calm Calm - N/A Snow Light Snow
3:37 AM 26.6 °F - 26.6 °F 100% 30.04 in 2.5 mi Calm Calm - N/A Snow Light Snow
3:58 AM 26.6 °F - 26.6 °F 100% 30.03 in 2.5 mi Calm Calm - N/A Snow Light Snow
4:18 AM 26.6 °F - 26.6 °F 100% 30.02 in 2.0 mi Calm Calm - N/A Snow Light Snow
4:37 AM 26.6 °F - 26.6 °F 100% 30.02 in 1.8 mi Calm Calm - N/A Snow Light Snow
4:58 AM 26.6 °F 22.6 °F 26.6 °F 100% 30.02 in 1.2 mi South 3.5 mph - N/A Snow Light Snow
5:17 AM 26.6 °F - 26.6 °F 100% 30.02 in 1.5 mi Calm Calm - N/A Snow Light Snow
5:38 AM 26.6 °F - 24.8 °F 93% 30.01 in 2.0 mi Calm Calm - N/A Snow Light Snow
5:58 AM 26.6 °F - 24.8 °F 93% 30.01 in 2.0 mi Calm Calm - N/A Snow Light Snow
6:17 AM 26.6 °F - 24.8 °F 93% 30.02 in 2.5 mi Calm Calm - N/A Snow Light Snow
6:38 AM 26.6 °F - 24.8 °F 93% 30.01 in 1.2 mi Calm Calm - N/A Snow Light Snow
6:58 AM 26.6 °F - 24.8 °F 93% 30.02 in 2.0 mi Calm Calm - N/A Snow Light Snow
7:18 AM 26.6 °F - 24.8 °F 93% 30.03 in 3.0 mi Calm Calm - N/A Snow Light Snow
7:38 AM 26.6 °F - 24.8 °F 93% 30.02 in 3.0 mi Calm Calm - N/A Snow Light Snow
7:57 AM 26.6 °F - 26.6 °F 100% 30.02 in 2.0 mi Calm Calm - N/A Snow Light Snow
8:18 AM 26.6 °F - 26.6 °F 100% 30.02 in 1.5 mi Calm Calm - N/A Snow Light Snow
8:38 AM 26.6 °F - 26.6 °F 100% 30.03 in 1.2 mi Calm Calm - N/A Snow Light Snow
8:57 AM 26.6 °F - 26.6 °F 100% 30.03 in 0.8 mi Calm Calm - N/A Snow Light Snow
9:18 AM 26.6 °F - 26.6 °F 100% 30.03 in 1.2 mi Calm Calm - N/A Snow Light Snow
9:37 AM 26.6 °F - 24.8 °F 93% 30.02 in 2.0 mi Calm Calm - N/A Snow Light Snow
9:57 AM 26.6 °F - 26.6 °F 100% 30.02 in 2.0 mi Calm Calm - N/A Snow Light Snow
10:18 AM 28.4 °F - 26.6 °F 93% 30.02 in 2.0 mi Calm Calm - N/A Snow Light Snow
10:37 AM 28.4 °F - 26.6 °F 93% 30.02 in 1.8 mi Calm Calm - N/A Snow Light Snow
10:58 AM 28.4 °F - 26.6 °F 93% 30.00 in 2.0 mi Calm Calm - N/A Snow Light Snow
11:18 AM 28.4 °F - 26.6 °F 93% 29.99 in 1.8 mi Calm Calm - N/A Snow Light Snow
11:38 AM 30.2 °F - 26.6 °F 86% 29.97 in 3.0 mi Calm Calm - N/A Snow Light Snow
11:58 AM 30.2 °F - 26.6 °F 86% 29.96 in 2.5 mi Calm Calm - N/A Snow Light Snow
12:17 PM 30.2 °F - 26.6 °F 86% 29.94 in 3.0 mi Calm Calm - N/A Snow Light Snow
12:38 PM 30.2 °F 26.7 °F 26.6 °F 86% 29.92 in 2.5 mi NNE 3.5 mph - N/A Snow Light Snow
12:58 PM 30.2 °F 25.4 °F 26.6 °F 86% 29.91 in 2.5 mi NNE 4.6 mph - N/A Snow Light Snow
1:17 PM 30.2 °F 24.3 °F 26.6 °F 86% 29.89 in 1.8 mi NNE 5.8 mph - N/A Snow Light Snow
1:38 PM 30.2 °F 23.4 °F 26.6 °F 86% 29.87 in 2.5 mi NNE 6.9 mph - N/A Snow Light Snow
1:58 PM 30.2 °F 23.4 °F 26.6 °F 86% 29.85 in 2.5 mi NE 6.9 mph - N/A Snow Light Snow
2:18 PM 30.2 °F 22.6 °F 26.6 °F 86% 29.84 in 2.5 mi NE 8.1 mph - N/A Snow Light Snow
2:38 PM 30.2 °F 24.3 °F 28.4 °F 93% 29.83 in 1.8 mi NNE 5.8 mph - N/A Snow Light Snow
2:57 PM 30.2 °F 22.6 °F 28.4 °F 93% 29.80 in 1.8 mi NNE 8.1 mph - N/A Snow Light Snow
3:18 PM 30.2 °F 20.8 °F 28.4 °F 93% 29.78 in 3.0 mi NE 11.5 mph - N/A Snow Light Snow
3:38 PM 30.2 °F 21.3 °F 28.4 °F 93% 29.78 in 1.8 mi NE 10.4 mph - N/A Snow Light Snow
3:57 PM 30.2 °F 21.9 °F 28.4 °F 93% 29.78 in 1.2 mi NE 9.2 mph - N/A Snow Light Snow
4:18 PM 30.2 °F 21.9 °F 28.4 °F 93% 29.77 in 1.0 mi NNE 9.2 mph - N/A Snow Light Snow
4:38 PM 30.2 °F 21.9 °F 28.4 °F 93% 29.76 in 0.8 mi NNE 9.2 mph - N/A Snow Light Snow
4:58 PM 30.2 °F 24.3 °F 28.4 °F 93% 29.74 in 0.8 mi NNE 5.8 mph - N/A Snow Light Snow
5:18 PM 30.2 °F 23.4 °F 28.4 °F 93% 29.73 in 1.2 mi North 6.9 mph - N/A Snow Light Snow
5:37 PM 30.2 °F 21.9 °F 28.4 °F 93% 29.71 in 1.5 mi North 9.2 mph - N/A Snow Light Snow
5:58 PM 30.2 °F 24.3 °F 28.4 °F 93% 29.71 in 1.8 mi North 5.8 mph - N/A Snow Light Snow
6:17 PM 30.2 °F 21.3 °F 28.4 °F 93% 29.69 in 1.0 mi NNE 10.4 mph - N/A Snow Snow
6:38 PM 30.2 °F 22.6 °F 28.4 °F 93% 29.69 in 1.0 mi North 8.1 mph - N/A Snow Snow
6:58 PM 30.2 °F 21.9 °F 28.4 °F 93% 29.66 in 0.8 mi North 9.2 mph - N/A Snow Snow
7:17 PM 30.2 °F 21.9 °F 28.4 °F 93% 29.66 in 0.8 mi NNE 9.2 mph - N/A Snow Snow
7:38 PM 30.2 °F 21.3 °F 28.4 °F 93% 29.63 in 1.2 mi NNE 10.4 mph - N/A Snow Light Snow
7:58 PM 30.2 °F 22.6 °F 28.4 °F 93% 29.62 in 1.0 mi NNE 8.1 mph 16.1 mph N/A Snow Snow
8:17 PM 30.2 °F 21.3 °F 28.4 °F 93% 29.61 in 1.0 mi NNE 10.4 mph 16.1 mph N/A Snow Snow
8:38 PM 30.2 °F 20.8 °F 28.4 °F 93% 29.59 in 1.2 mi NNE 11.5 mph 17.3 mph N/A Snow Light Snow
8:57 PM 30.2 °F 20.8 °F 28.4 °F 93% 29.58 in 1.5 mi North 11.5 mph 17.3 mph N/A Snow Light Snow
9:18 PM 30.2 °F 19.8 °F 28.4 °F 93% 29.56 in 1.8 mi North 13.8 mph 19.6 mph N/A Snow Light Snow
9:38 PM 30.2 °F 20.8 °F 28.4 °F 93% 29.52 in 2.0 mi North 11.5 mph 19.6 mph N/A Snow Light Snow
9:58 PM 30.2 °F 18.9 °F 26.6 °F 86% 29.51 in 3.0 mi North 16.1 mph 21.9 mph N/A Snow Light Snow
10:18 PM 30.2 °F 19.8 °F 26.6 °F 86% 29.50 in 2.5 mi North 13.8 mph 21.9 mph N/A Snow Light Snow
10:37 PM 28.4 °F 17.5 °F 26.6 °F 93% 29.49 in 3.0 mi North 13.8 mph 21.9 mph N/A Snow Light Snow
10:58 PM 28.4 °F 17.0 °F 26.6 °F 93% 29.48 in 1.8 mi North 15.0 mph 19.6 mph N/A Snow Light Snow
11:18 PM 28.4 °F 19.1 °F 26.6 °F 93% 29.46 in 1.2 mi North 10.4 mph 20.7 mph N/A Snow Light Snow
11:37 PM 28.4 °F 18.5 °F 24.8 °F 86% 29.46 in 1.0 mi NNW 11.5 mph 17.3 mph N/A Snow Snow
11:58 PM 26.6 °F 16.8 °F 24.8 °F 93% 29.44 in 1.2 mi NNW 10.4 mph 17.3 mph N/A Snow Snow